Location: ??
(35.5653°N, 139.6194°E)
Time: 23:55:52
(UTC+00:00)

BREEZE-M DEB (TANK) - Pass Details

Date: 20 November 2019
Orbit: 297 x 14276 km, 49.6° (Epoch: 07 December)

Event Time Altitude Azimuth Distance (km) Brightness Sun altitude
Rises 19:58:13 0° 224° (SW) 11,372 9.0 -17.0°
Reaches altitude 10° 20:09:43 10° 225° (SW) 7,842 8.1 -14.8°
Maximum altitude 20:27:44 82° 142° (SE) 1,276 4.5 -11.2°
Drops below altitude 10° 20:32:10 10° 54° (NE) 2,134 6.2 -10.4°
Sets 20:33:32 0° 53° (NE) 2,730 6.7 -10.1°
